This demonstration page uses our WeatherBlox Daily Observations layout. Learn more.

Left ArrowRight Arrow

39.95238, -75.16362

Hourly Observations for August 2, 2022

Temp ( °F °C ) Dew Point ( °F °C ) Humidity (%) Winds ( mph kmh ) Pressure ( in mb ) Visibility ( mi km ) Precip ( " mm )
12:54 am 00:54 Mostly Cloudy 74 23.3 68 20 82 82 Calm 29.87 1011 10 16 0.00 0.00
1:54 am 01:54 Mostly Clear 74 23.3 68 20 82 82 Calm 29.85 1011 10 16 0.00 0.00
2:54 am 02:54 Cloudy 75 23.9 69 20.6 82 82 SSW 7 11 29.85 1011 10 16 0.00 0.00
3:54 am 03:54 Cloudy 76 24.4 71 21.7 85 85 VRB 6 9 29.83 1010 10 16 0.01 0.25
4:54 am 04:54 Mostly Cloudy 75 23.9 71 21.7 88 88 SW 7 11 29.82 1010 10 16 0.00 0.00
5:54 am 05:54 Partly Cloudy 73 22.8 70 21.1 90 90 SSW 8 13 29.85 1011 10 16 0.00 0.00
6:54 am 06:54 Partly Cloudy 73 22.8 71 21.7 94 94 SW 8 13 29.85 1011 10 16 0.00 0.00
7:54 am 07:54 Partly Cloudy 76 24.4 71 21.7 85 85 WSW 10 17 29.86 1011 10 16 0.00 0.00
8:54 am 08:54 Mostly Cloudy 80 26.7 71 21.7 74 74 SW 13 20 29.85 1011 10 16 0.00 0.00
9:54 am 09:54 Partly Cloudy 83 28.3 70 21.1 65 65 W 10 17 29.85 1011 10 16 0.00 0.00
10:54 am 10:54 Partly Cloudy 86 30 70 21.1 59 59 W 10 17 29.85 1011 10 16 0.00 0.00
11:54 am 11:54 Partly Cloudy 87 30.6 70 21.1 57 57 SSW 13 20 29.84 1011 10 16 0.00 0.00
12:54 pm 12:54 Partly Cloudy 90 32.2 68 20 48 48 SW 12 19 29.83 1010 10 16 0.00 0.00
1:54 pm 13:54 Partly Cloudy 91 32.8 68 20 47 47 WSW 15 24 29.83 1010 10 16 0.00 0.00
2:54 pm 14:54 Partly Cloudy 91 32.8 68 20 47 47 W 14 22 29.83 1010 10 16 0.00 0.00
3:54 pm 15:54 Partly Cloudy 93 33.9 67 19.4 42 42 W 15 24 29.82 1010 10 16 0.00 0.00
4:54 pm 16:54 Partly Cloudy 92 33.3 65 18.3 41 41 W 13 20 29.81 1010 10 16 0.00 0.00
5:54 pm 17:54 Partly Cloudy 92 33.3 64 17.8 40 40 WNW 14 22 29.82 1010 10 16 0.00 0.00
6:54 pm 18:54 Partly Cloudy 91 32.8 65 18.3 42 42 WNW 14 22 29.82 1010 10 16 0.00 0.00
7:54 pm 19:54 Mostly Sunny 90 32.2 65 18.3 44 44 W 13 20 29.83 1010 10 16 0.00 0.00
8:54 pm 20:54 Mostly Clear 87 30.6 69 20.6 55 55 WSW 9 15 29.85 1011 10 16 0.00 0.00
9:54 pm 21:54 Clear 85 29.4 69 20.6 59 59 WSW 7 11 29.88 1012 10 16 0.00 0.00
10:54 pm 22:54 Mostly Clear 84 28.9 67 19.4 57 57 W 9 15 29.88 1012 10 16 0.00 0.00
11:54 pm 23:54 Mostly Clear 83 28.3 67 19.4 59 59 W 7 11 29.90 1013 10 16 0.00 0.00

Powered by AerisWeather